Flag for Germany Weather past 2 weeks in Buxtehude, Lower Saxony, Germany

Now
41 °F

Partly sunny.


Feels Like: 35 °F
Forecast: 47 / 53 °F
Wind: 10 mph from Southwest

Location: Hamburg-Fuhlsbuettel

Current Time: Dec 21, 2014 at 9:47:33 AM

Latest Report: Dec 21, 2014 at 9:20 AM


Visibility: N/A

Pressure: 30.18 "Hg

Humidity: 87%

Dew point: 37 °F

Location of BuxtehudeLocation

Historic Weather in Buxtehude — Graph

°F

Buxtehude temperature yesterday

Maximum temperature yesterday: 45 °F (at 6:20 AM)
Minimum temperature yesterday: 36 °F (at 10:20 AM)
Average temperature yesterday: 42 °F

Past Weeks' High & Low Weather Summary

 TemperatureHumidityPressure
High54 °F (Dec 18, 7:20 PM)100% (Dec 6, 8:20 AM)30.30 "Hg (Dec 6, 8:20 AM)
Low34 °F (Dec 6, 7:20 PM)70% (Dec 10, 4:20 AM)29.18 "Hg (Dec 12, 12:50 PM)
Average41 °F89%29.80 "Hg
* Reported Dec 6 8:20 AM — Dec 21 8:50 AM, Buxtehude, Weather by CustomWeather, © 2014

Note: Actual official high and low records may vary slightly from our data, if they occured in-between our weather recording intervals... More about our weather records

Advertising

Buxtehude weather history for previous 24 hours

 ConditionsComfort  
Time TempWeatherWind HumidityBarometerVisibility
8:50 AM
Dec 21
39 °FPartly sunny.7 mph93%30.18 "HgN/A
8:20 AM41 °FPassing clouds.7 mph87%30.18 "HgN/A
7:50 AM41 °FPassing clouds.10 mph87%30.18 "HgN/A
7:20 AM41 °FPassing clouds.9 mph87%30.15 "HgN/A
6:50 AM41 °FPassing clouds.10 mph87%30.15 "HgN/A
6:20 AM43 °FPassing clouds.9 mph81%30.15 "HgN/A
5:50 AM41 °FPassing clouds.8 mph87%30.15 "HgN/A
5:20 AM41 °FClear.8 mph87%30.15 "Hg10 mi
4:50 AM41 °FClear.9 mph87%30.12 "Hg10 mi
4:20 AM41 °FClear.7 mph87%30.12 "Hg10 mi
3:50 AM43 °FPassing clouds.8 mph81%30.12 "HgN/A
3:20 AM43 °FPassing clouds.9 mph81%30.12 "HgN/A
2:50 AM43 °FPassing clouds.13 mph87%30.09 "HgN/A
2:20 AM43 °FPassing clouds.13 mph81%30.07 "HgN/A
1:20 AM43 °FPassing clouds.12 mph81%30.04 "HgN/A
12:50 AM41 °FPassing clouds.14 mph87%30.04 "HgN/A
12:20 AM41 °FPassing clouds.17 mph87%30.01 "HgN/A
11:50 PM
Dec 20
41 °FPassing clouds.20 mph87%29.98 "HgN/A
11:20 PM43 °FSprinkles. Passing clouds.23 mph81%29.98 "HgN/A
10:50 PM45 °FPassing clouds.17 mph71%29.95 "HgN/A
10:20 PM43 °FScattered showers. Passing clouds.18 mph76%29.95 "HgN/A
9:50 PM45 °FSprinkles. Passing clouds.17 mph71%29.92 "HgN/A
9:20 PM43 °FPassing clouds.20 mph76%29.92 "HgN/A
8:50 PM41 °FPassing clouds.10 mph81%29.89 "HgN/A
8:20 PM41 °FPassing clouds.13 mph76%29.89 "HgN/A
7:50 PM41 °FPassing clouds.14 mph76%29.86 "HgN/A
7:20 PM41 °FPassing clouds.13 mph76%29.86 "HgN/A
6:50 PM41 °FPassing clouds.13 mph76%29.83 "HgN/A
6:20 PM41 °FSprinkles. Passing clouds.21 mph81%29.83 "HgN/A
5:50 PM41 °FSprinkles. Passing clouds.17 mph76%29.80 "HgN/A
5:20 PM41 °FThundershowers. Passing clouds.23 mph76%29.77 "HgN/A
4:50 PM45 °FPassing clouds.23 mph71%29.74 "HgN/A
4:20 PM45 °FPartly cloudy.20 mph76%29.74 "HgN/A
3:50 PM43 °FScattered clouds.18 mph81%29.71 "HgN/A
3:20 PM43 °FSprinkles. Broken clouds.17 mph87%29.68 "HgN/A
2:50 PM43 °FSprinkles. Partly sunny.17 mph87%29.71 "HgN/A
2:20 PM41 °FScattered showers. Scattered clouds.14 mph93%29.71 "HgN/A
1:20 PM39 °FSprinkles. Broken clouds.18 mph93%29.71 "HgN/A
12:50 PM39 °FScattered clouds.9 mph93%29.71 "HgN/A
12:20 PM36 °FSprinkles. Broken clouds.10 mph100%29.74 "HgN/A
11:50 AM37 °FSprinkles. Broken clouds.7 mph93%29.74 "HgN/A
11:20 AM36 °FSprinkles. Broken clouds.9 mph100%29.77 "Hg4 mi
10:50 AM36 °FSprinkles. Partly sunny.13 mph93%29.77 "Hg4 mi
10:20 AM36 °FSprinkles. Partly sunny.16 mph93%29.77 "Hg3 mi
9:50 AM45 °FSprinkles. Partly sunny.25 mph81%29.74 "HgN/A
9:20 AM45 °FPartly sunny.23 mph76%29.71 "HgN/A
Weather by CustomWeather, © 2014

See weather overviewHow to use our weather pages